{"data":{"norad_id":52539,"epoch":"2026-05-25T04:57:13.793760Z","epoch_age_seconds":50990,"freshness":"FRESH","line1":"1 52539U 22051G   26145.20640965 -.00012533  00000+0 -77260-3 0  9994","line2":"2 52539  53.2142 145.6235 0002864  34.1312 325.9864 15.08747540222995","mean_motion":15.0874754,"eccentricity":0.0002864,"inclination_deg":53.2142,"raan_deg":145.6235,"arg_perigee_deg":34.1312,"mean_anomaly_deg":325.9864,"bstar":-0.0007726,"rev_number":22299,"period_min":95.443403341025,"perigee_km":538.04465473958,"apogee_km":542.00737851551,"semimajor_km":6918.1630166275,"source":"CELESTRAK","updated_at":"2026-05-25T13:38:17.162122Z"}}